| time (UTC) | temp F | wind direction | speed knots | gust knots | rain 1hr in | rain 24hr in | rain mn in | humidity % | barometer mb |
| 20260507063048 | 45 | 281 | 0.0 | 0.0 | 0.00 | 0.00 | 0.00 | 59 | 1012.5 |
| 20260507061543 | 45 | 281 | 0.0 | 0.0 | 0.00 | 0.00 | 0.00 | 59 | 1012.6 |
| 20260507060044 | 45 | 281 | 0.0 | 0.0 | 0.00 | 0.00 | 0.00 | 59 | 1012.6 |
| 20260507054542 | 45 | 281 | 0.0 | 0.0 | 0.00 | 0.00 | 0.00 | 59 | 1012.7 |
| 20260507053037 | 46 | 281 | 0.0 | 0.0 | 0.00 | 0.00 | 0.00 | 58 | 1012.8 |
| 20260507051536 | 46 | 281 | 0.0 | 0.0 | 0.00 | 0.00 | 0.00 | 57 | 1012.8 |
| 20260507050037 | 46 | 281 | 0.0 | 0.0 | 0.00 | 0.00 | 0.00 | 56 | 1012.8 |
| 20260507044538 | 47 | 281 | 0.0 | 0.0 | 0.00 | 0.00 | 0.00 | 56 | 1012.8 |
| 20260507043030 | 47 | 281 | 0.0 | 0.0 | 0.00 | 0.00 | 0.00 | 55 | 1012.8 |
| 20260507041536 | 47 | 281 | 0.0 | 0.0 | 0.00 | 0.00 | 0.00 | 54 | 1012.7 |
| 20260507040025 | 47 | 281 | 0.0 | 3.5 | 0.00 | 0.00 | 0.00 | 54 | 1012.7 |
| 20260507034525 | 48 | 281 | 0.9 | 2.6 | 0.00 | 0.00 | 0.00 | 53 | 1012.7 |
| 20260507033028 | 48 | 281 | 0.9 | 2.6 | 0.00 | 0.00 | 0.00 | 53 | 1012.8 |
| 20260507031527 | 48 | 281 | 1.7 | 3.5 | 0.00 | 0.00 | 0.00 | 52 | 1012.8 |
| 20260507030024 | 48 | 281 | 0.9 | 1.7 | 0.00 | 0.00 | 0.00 | 52 | 1012.9 |
| 20260507024524 | 48 | 282 | 0.9 | 2.6 | 0.00 | 0.00 | 0.00 | 51 | 1012.8 |
| 20260507023022 | 49 | 282 | 0.0 | 1.7 | 0.00 | 0.00 | 0.00 | 51 | 1012.7 |
| 20260507021522 | 49 | 282 | 0.9 | 3.5 | 0.00 | 0.00 | 0.00 | 49 | 1012.7 |
| 20260507020023 | 49 | 278 | 1.7 | 3.5 | 0.00 | 0.00 | 0.00 | 49 | 1012.6 |
| 20260507014529 | 49 | 278 | 1.7 | 3.5 | 0.00 | 0.00 | 0.00 | 48 | 1012.6 |
| 20260507013024 | 50 | 278 | 0.9 | 3.5 | 0.00 | 0.00 | 0.00 | 47 | 1012.5 |
| 20260507011521 | 50 | 278 | 1.7 | 6.1 | 0.00 | 0.00 | 0.00 | 46 | 1012.4 |
| 20260507010019 | 50 | 278 | 1.7 | 7.0 | 0.00 | 0.00 | 0.00 | 45 | 1012.4 |
| 20260507004531 | 50 | 268 | 0.9 | 5.2 | 0.00 | 0.00 | 0.00 | 45 | 1012.2 |
| 20260507003019 | 51 | 277 | 1.7 | 7.0 | 0.00 | 0.00 | 0.00 | 44 | 1012.3 |
| 20260507001524 | 51 | 281 | 3.5 | 7.0 | 0.00 | 0.00 | 0.00 | 42 | 1012.0 |
| 20260507000024 | 51 | 284 | 2.6 | 6.1 | 0.00 | 0.00 | 0.00 | 43 | 1012.1 |
| 20260506234529 | 51 | 286 | 3.5 | 7.8 | 0.00 | 0.00 | 0.00 | 42 | 1012.0 |
| 20260506233016 | 52 | 281 | 2.6 | 6.1 | 0.00 | 0.00 | 0.00 | 42 | 1012.0 |
| 20260506231530 | 52 | 273 | 3.5 | 9.6 | 0.00 | 0.00 | 0.00 | 40 | 1011.9 |
| 20260506230014 | 52 | 294 | 1.7 | 7.8 | 0.00 | 0.00 | 0.00 | 40 | 1011.9 |
| 20260506224514 | 52 | 277 | 1.7 | 10.4 | 0.00 | 0.00 | 0.00 | 41 | 1011.9 |
| 20260506223013 | 52 | 274 | 6.1 | 11.3 | 0.00 | 0.00 | 0.00 | 40 | 1011.9 |
| 20260506221513 | 52 | 297 | 1.7 | 7.0 | 0.00 | 0.00 | 0.00 | 42 | 1011.9 |
| 20260506220012 | 53 | 306 | 1.7 | 8.7 | 0.00 | 0.00 | 0.00 | 43 | 1011.8 |
| 20260506214512 | 53 | 314 | 1.7 | 5.2 | 0.00 | 0.00 | 0.00 | 43 | 1011.8 |
| 20260506213011 | 53 | 279 | 4.3 | 8.7 | 0.00 | 0.00 | 0.00 | 40 | 1011.7 |
| 20260506211513 | 53 | 314 | 0.9 | 5.2 | 0.00 | 0.00 | 0.00 | 44 | 1011.7 |
| 20260506210008 | 52 | 299 | 2.6 | 6.1 | 0.00 | 0.00 | 0.00 | 44 | 1011.8 |
| 20260506204507 | 52 | 296 | 3.5 | 9.6 | 0.00 | 0.00 | 0.00 | 43 | 1011.9 |
| 20260506203007 | 52 | 271 | 1.7 | 8.7 | 0.00 | 0.00 | 0.00 | 46 | 1011.9 |
| 20260506201506 | 52 | 322 | 2.6 | 7.0 | 0.00 | 0.00 | 0.00 | 44 | 1012.0 |
| 20260506200006 | 52 | 286 | 2.6 | 7.0 | 0.00 | 0.00 | 0.00 | 45 | 1012.1 |
| 20260506194505 | 52 | 330 | 0.9 | 7.8 | 0.00 | 0.00 | 0.00 | 44 | 1012.0 |
| 20260506193004 | 52 | 274 | 2.6 | 7.0 | 0.00 | 0.00 | 0.00 | 46 | 1012.2 |
| 20260506191503 | 52 | 290 | 2.6 | 6.1 | 0.00 | 0.00 | 0.00 | 45 | 1012.3 |
| 20260506190002 | 52 | 318 | 2.6 | 5.2 | 0.00 | 0.00 | 0.00 | 48 | 1012.3 |
| 20260506184501 | 51 | 288 | 0.0 | 3.5 | 0.00 | 0.00 | 0.00 | 49 | 1012.4 |
| 20260506183002 | 51 | 346 | 1.7 | 6.1 | 0.00 | 0.00 | 0.00 | 47 | 1012.3 |
| 20260506181600 | 52 | 293 | 0.0 | 5.2 | 0.00 | 0.00 | 0.00 | 46 | 1012.2 |
| 20260506180158 | 52 | 290 | 0.9 | 7.0 | 0.00 | 0.00 | 0.00 | 49 | 1012.3 |
| 20260506174559 | 50 | 317 | 1.7 | 7.0 | 0.00 | 0.00 | 0.00 | 48 | 1012.5 |
| 20260506173108 | 50 | 5 | 2.6 | 5.2 | 0.00 | 0.00 | 0.00 | 48 | 1012.6 |
| 20260506171556 | 51 | 302 | 4.3 | 8.7 | 0.00 | 0.00 | 0.00 | 45 | 1012.8 |
| 20260506170112 | 51 | 325 | 2.6 | 9.6 | 0.00 | 0.00 | 0.00 | 45 | 1012.8 |
| 20260506164554 | 51 | 311 | 3.5 | 8.7 | 0.00 | 0.00 | 0.00 | 49 | 1012.7 |
| 20260506163104 | 51 | 321 | 3.5 | 8.7 | 0.00 | 0.00 | 0.00 | 48 | 1012.7 |
| 20260506161550 | 50 | 285 | 3.5 | 7.8 | 0.00 | 0.00 | 0.00 | 51 | 1012.7 |
| 20260506160046 | 50 | 319 | 1.7 | 4.3 | 0.00 | 0.00 | 0.00 | 54 | 1012.9 |
| 20260506154543 | 48 | 342 | 2.6 | 6.1 | 0.00 | 0.00 | 0.00 | 56 | 1013.0 |
| 20260506153041 | 48 | 29 | 1.7 | 6.1 | 0.00 | 0.00 | 0.00 | 63 | 1012.7 |
| 20260506151543 | 48 | 314 | 0.9 | 5.2 | 0.00 | 0.00 | 0.00 | 63 | 1012.7 |
| 20260506150037 | 47 | 17 | 1.7 | 5.2 | 0.00 | 0.00 | 0.00 | 63 | 1012.6 |
| 20260506144543 | 47 | 12 | 1.7 | 6.1 | 0.00 | 0.05 | 0.00 | 67 | 1012.5 |
| 20260506143035 | 46 | 32 | 1.7 | 5.2 | 0.00 | 0.05 | 0.00 | 68 | 1012.5 |
| 20260506141533 | 46 | 50 | 3.5 | 6.1 | 0.00 | 0.05 | 0.00 | 67 | 1012.3 |
| 20260506140029 | 46 | 24 | 1.7 | 5.2 | 0.00 | 0.05 | 0.00 | 68 | 1012.2 |
| 20260506134528 | 46 | 39 | 2.6 | 5.2 | 0.00 | 0.05 | 0.00 | 70 | 1012.0 |
| 20260506133028 | 45 | 75 | 0.9 | 4.3 | 0.00 | 0.05 | 0.00 | 70 | 1011.9 |
| 20260506131525 | 44 | 59 | 3.5 | 7.8 | 0.00 | 0.05 | 0.00 | 71 | 1011.7 |
| 20260506130026 | 44 | 58 | 0.9 | 8.7 | 0.00 | 0.05 | 0.00 | 70 | 1011.8 |
| 20260506124524 | 43 | 59 | 2.6 | 7.8 | 0.00 | 0.05 | 0.00 | 71 | 1011.7 |
| 20260506123028 | 44 | 42 | 2.6 | 8.7 | 0.00 | 0.05 | 0.00 | 70 | 1011.4 |
| 20260506121523 | 43 | 15 | 0.0 | 0.9 | 0.00 | 0.05 | 0.00 | 69 | 1011.3 |
| 20260506120018 | 42 | 317 | 0.0 | 0.0 | 0.00 | 0.05 | 0.00 | 69 | 1011.0 |
| 20260506114514 | 42 | 317 | 0.0 | 2.6 | 0.00 | 0.05 | 0.00 | 70 | 1010.7 |
| 20260506113024 | 41 | 340 | 1.7 | 4.3 | 0.00 | 0.05 | 0.00 | 70 | 1010.5 |
| 20260506111510 | 41 | 338 | 0.0 | 0.0 | 0.00 | 0.05 | 0.00 | 72 | 1010.2 |
| 20260506110011 | 40 | 338 | 0.0 | 0.0 | 0.00 | 0.05 | 0.00 | 73 | 1010.1 |
| 20260506104508 | 40 | 338 | 0.0 | 0.0 | 0.00 | 0.05 | 0.00 | 73 | 1010.1 |
| 20260506103011 | 40 | 338 | 0.0 | 0.0 | 0.00 | 0.05 | 0.00 | 73 | 1009.8 |
| 20260506101504 | 41 | 338 | 0.0 | 0.0 | 0.00 | 0.05 | 0.00 | 72 | 1010.0 |
| 20260506100100 | 41 | 338 | 0.0 | 0.0 | 0.00 | 0.05 | 0.00 | 71 | 1009.4 |
| 20260506094605 | 42 | 338 | 0.0 | 0.0 | 0.00 | 0.05 | 0.00 | 68 | 1009.2 |
| 20260506093055 | 42 | 338 | 0.0 | 0.0 | 0.00 | 0.05 | 0.00 | 68 | 1009.0 |
| 20260506091559 | 43 | 338 | 0.0 | 0.0 | 0.00 | 0.05 | 0.00 | 66 | 1008.7 |
| 20260506090056 | 43 | 338 | 0.0 | 0.0 | 0.00 | 0.05 | 0.00 | 65 | 1008.8 |
| 20260506084607 | 43 | 338 | 0.0 | 2.6 | 0.00 | 0.05 | 0.00 | 65 | 1008.8 |
| 20260506083049 | 43 | 338 | 1.7 | 2.6 | 0.00 | 0.05 | 0.00 | 64 | 1008.8 |
| 20260506081547 | 44 | 338 | 0.9 | 2.6 | 0.00 | 0.05 | 0.00 | 64 | 1008.8 |
| 20260506073051 | 45 | 338 | 0.9 | 3.5 | 0.00 | 0.05 | 0.00 | 61 | 1008.8 |
| 20260506071540 | 45 | 338 | 1.7 | 3.5 | 0.00 | 0.05 | 0.00 | 61 | 1008.8 |